Weather in Korkino

Russia / Kostroma Oblast     57°41′41″N   40°57′33″E
temp.,
°C
wind,
m/s
gust,
m/s
humid.,
%
clouds,
%
prec.,
mm/h
press.,
hPa
HPBL,
m
16 june, wed
wed1600:00+16w22871 0.0 100911
03:00+15nw22895 0.0 100912
06:00+16nw2388100 0.0 1009108
09:00+18nnw5676100 0.0 1010444
12:00+21nnw66570 0.0 10111246
15:00+22nw57470 0.0 10122173
18:00+20nnw59550 0.0 1013496
21:00+14nw3367100 0.0 101536
17 june, thu
thu1700:00+12nw34649 0.0 101763
03:00+10nw3661100 0.0 101997
06:00+12wnw39694 0.0 1020304
09:00+16nw58502 0.0 1022930
12:00+20nw69455 0.0 10221882
15:00+21wnw67485 0.0 10222147
18:00+20wnw48608 0.0 1023534
21:00+15wnw22700 0.0 102314
18 june, fri
fri1800:00+12wnw22780 0.0 102510
03:00+11n11825 0.0 102610
06:00+15sw00730 0.0 102668
09:00+20wsw22615 0.0 1027416
12:00+23wsw3451100 0.0 10261080
15:00+24wsw45539 0.0 10251274
18:00+23ssw367270 0.0 1024189
21:00+18sw33838 0.0 102439
19 june, sat
sat1900:00+17sw388426 0.0 1024123
03:00+16wsw311865 0.0 1025196
06:00+18wsw410825 0.0 1025296
09:00+23w57691 0.0 1025526
12:00+26w68565 0.0 10241542
15:00+27w68572 0.0 10231914
18:00+25w59657 0.0 1023592
21:00+20wsw36800 0.0 102393
20 june, sun
sun2000:00+18wsw33790 0.0 102443
03:00+17wsw22846 0.0 102426
06:00+19wsw368211 0.0 1024168
09:00+24wsw456714 0.0 1024482
12:00+27wsw455771 0.0 10231183
15:00+28wsw445466 0.0 10221829
18:00+27sw35654 0.0 1021433
21:00+22ssw34809 0.0 102160